Zurück zum Katalog

CZ-6A DEB

AktivPO
NORAD 55534·DEBRIS·🇨🇳 China

Gestartet Nov 11, 2022 von Taiyuan Satellite Launch Center

Loading…

Nächste Überflüge (nächste 24 Stunden)

TLE

AktuellSource: Space-Track

Epoche: Sep 13, 2026, 19:14 UTC

1 55534U 22151YG  26256.80173957  .00041558  00000-0  28126-2 0  9998
2 55534  98.6415 352.2805 0034219 299.7515  60.0306 15.05895798199370

Verfolge CZ-6A DEB in Echtzeit mit AllMySat

Download on the App Store